Location: Dead Woman Crossing
(43.5369°N, 106.3228°W)
Time: 09:56:21
(UTC+00:00)

ITUPSAT 1 - Pass Details

Date: 07 July 2022
Orbit: 701 x 711 km, 98.6° (Epoch: 13 August)

Event Time Altitude Azimuth Distance (km) Brightness Sun altitude
Rises 03:52:14 0° 10° (N) 3,113 ? -9.8°
Reaches altitude 10° 03:54:31 10° 7° (N) 2,192 ? -10.1°
Maximum altitude 03:59:16 63° 287° (WNW) 792 ? -10.7°
Drops below altitude 10° 04:03:59 10° 207° (SSW) 2,180 ? -11.3°
Sets 04:06:14 0° 204° (SSW) 3,096 ? -11.6°
